Pittsfield, MA

6:49 PM EDT on June 27, 2017 (GMT -0400)
Pittsfield Municipal

Weather History for KPSF - March, 2014

Change the Weather History Date:

Sunday, March 2, 2014

  Actual Average Record
Temperature  
Mean Temperature 21 °F 27 °F  
Max Temperature 28 °F 37 °F 57 °F (2017)
Min Temperature 14 °F 18 °F -3 °F (1962)
Degree Days  
Heating Degree Days 44 38  
Month to date heating degree days 97 76  
Since 1 July heating degree days 5649 5456  
Cooling Degree Days 0 0  
Month to date cooling degree days 0 0  
Year to date cooling degree days 0 0  
Moisture  
Dew Point 12 °F    
Average Humidity 63    
Maximum Humidity 75    
Minimum Humidity 50    
Precipitation  
Precipitation T in 0.09 in 0.94 in (1947)
Month to date precipitation T 0.17  
Year to date precipitation 6.38 5.77  
Sea Level Pressure  
Sea Level Pressure 30.03 in    
Wind  
Wind Speed 8 mph (WNW)    
Max Wind Speed 18 mph    
Max Gust Speed 26 mph    
Visibility 10 miles    
Events      
T = Trace of Precipitation, MM = Missing Value Source: NWS Daily Summary

Daily Weather History Graph

Daily Weather History Graph

Search for Another Location

Airport or City:

Trip Planner

Search our weather history database for the weather conditions in past years. The results will help you decide how hot, cold, wet, or windy it might be!

Date:

Astronomy

Mar. 02, 2014 Rise Set
Actual Time 6:27 AM EST 5:44 PM EST
Civil Twilight 5:58 AM EST 6:12 PM EST
Nautical Twilight 5:26 AM EST 6:44 PM EST
Astronomical Twilight 4:53 AM EST 7:17 PM EST
Moon 6:54 AM EST (3/2) 7:40 PM EST (3/2)
Length of Visible Light 12h 13m
Length of Day
11h 17m
Waxing Crescent, 3% of the Moon is Illuminated
Mar 2
Waxing Crescent
Mar 8
First Quarter
Mar 16
Full
Mar 23
Last Quarter
Mar 30
New

Hourly Weather History & Observations

Time (EST) Temp. Windchill Dew Point Humidity Pressure Visibility Wind Dir Wind Speed Gust Speed Precip Events Conditions
12:54 AM 28.0 °F - 12.0 °F 51% 30.04 in 10.0 mi Calm Calm - N/A   Overcast
1:54 AM 28.0 °F 20.8 °F 12.9 °F 53% 30.03 in 10.0 mi Variable 6.9 mph - N/A   Overcast
2:54 AM 27.0 °F - 15.1 °F 61% 30.02 in 10.0 mi Calm Calm - N/A   Overcast
3:54 AM 27.0 °F 23.0 °F 14.0 °F 58% 30.03 in 10.0 mi NW 3.5 mph - N/A   Overcast
4:54 AM 27.0 °F 20.5 °F 16.0 °F 63% 30.04 in 7.0 mi NW 5.8 mph - N/A   Overcast
5:54 AM 26.1 °F 18.4 °F 18.0 °F 71% 30.03 in 8.0 mi NW 6.9 mph - 0.00 in   Overcast
6:54 AM 26.1 °F 21.9 °F 19.0 °F 75% 30.03 in 8.0 mi West 3.5 mph - N/A   Overcast
7:07 AM 26.1 °F 20.5 °F 19.0 °F 75% 29.99 in 7.0 mi WNW 4.6 mph - N/A   Overcast
7:35 AM 26.1 °F 14.0 °F 19.9 °F 78% 30.00 in 6.0 mi WNW 15.0 mph 19.6 mph N/A   Haze
7:54 AM 25.0 °F 14.2 °F 18.0 °F 75% 30.06 in 9.0 mi West 11.5 mph - N/A   Overcast
8:03 AM 25.0 °F 14.2 °F 17.1 °F 72% 30.02 in 10.0 mi West 11.5 mph 17.3 mph N/A   Overcast
8:54 AM 24.1 °F 15.2 °F 14.0 °F 65% 30.08 in 10.0 mi WNW 8.1 mph - N/A   Overcast
9:54 AM 24.1 °F 14.4 °F 14.0 °F 65% 30.09 in 10.0 mi West 9.2 mph - N/A   Overcast
10:54 AM 24.1 °F 17.0 °F 12.9 °F 62% 30.07 in 10.0 mi Variable 5.8 mph - N/A   Overcast
11:46 AM 25.0 °F 14.8 °F 12.9 °F 60% 30.01 in 10.0 mi West 10.4 mph - N/A   Overcast
11:54 AM 26.1 °F 16.2 °F 12.9 °F 58% 30.04 in 10.0 mi West 10.4 mph - N/A   Overcast
12:54 PM 27.0 °F 16.1 °F 12.0 °F 53% 30.01 in 10.0 mi NNW 12.7 mph 19.6 mph N/A   Mostly Cloudy
1:54 PM 25.0 °F 13.6 °F 10.0 °F 53% 30.01 in 10.0 mi WNW 12.7 mph - N/A   Overcast
2:54 PM 24.1 °F 13.7 °F 10.0 °F 55% 30.00 in 10.0 mi WNW 10.4 mph - N/A   Partly Cloudy
3:54 PM 23.0 °F 12.4 °F 7.0 °F 50% 30.01 in 10.0 mi NNW 10.4 mph 19.6 mph N/A   Overcast
4:54 PM 23.0 °F 13.9 °F 7.0 °F 50% 30.02 in 10.0 mi NNW 8.1 mph - N/A   Clear
5:54 PM 21.0 °F 11.4 °F 8.1 °F 57% 30.03 in 10.0 mi WNW 8.1 mph - N/A   Clear
6:54 PM 19.9 °F 10.1 °F 8.1 °F 60% 30.03 in 10.0 mi WNW 8.1 mph - N/A   Overcast
7:54 PM 19.9 °F 9.3 °F 7.0 °F 57% 30.04 in 10.0 mi WNW 9.2 mph - N/A   Overcast
8:54 PM 19.0 °F 6.1 °F 6.1 °F 57% 30.03 in 10.0 mi WNW 12.7 mph - N/A   Overcast
9:54 PM 18.0 °F 5.4 °F 7.0 °F 62% 30.04 in 10.0 mi NW 11.5 mph - N/A   Overcast
10:54 PM 17.1 °F 5.8 °F 6.1 °F 62% 30.05 in 10.0 mi NW 9.2 mph - N/A   Overcast
11:54 PM 15.1 °F -0.6 °F 3.0 °F 59% 30.05 in 10.0 mi WNW 16.1 mph 24.2 mph N/A   Partly Cloudy